,,Stat5,,Stat1,,Stat2,,Stat3,,Stat4,,Wind1,,Wind1,
time,status,PA1M_AVG,status,PR1M_SUM,status,RH1M_AVG,status,SR1M_AVG,status,TA1M_AVG,status,W1dAve1m,status,W1sAve1m,
2000-10-23, 00:00:01,VALID,917.38,VALID,0,VALID,90.247,VALID,0.0169808,VALID,20.3859,VALID,87,VALID,0.769314,
2000-10-23, 00:01:00,VALID,917.358,VALID,0,VALID,90.4836,VALID,0.0169808,VALID,20.3541,VALID,94,VALID,0.985642,
2000-10-23, 00:02:00,VALID,917.343,VALID,0,VALID,90.6374,VALID,0,VALID,20.3288,VALID,76,VALID,0.771326,
2000-10-23, 00:03:00,VALID,917.345,VALID,0,VALID,90.8078,VALID,0,VALID,20.2905,VALID,75,VALID,0.506811,
2000-10-23, 00:04:00,VALID,917.32,VALID,0,VALID,90.79,VALID,0.0169808,VALID,20.2965,VALID,44,VALID,0.61951,
2000-10-23, 00:05:00,VALID,917.313,VALID,0,VALID,90.7379,VALID,0,VALID,20.3151,VALID,87,VALID,0.639063,
2000-10-23, 00:06:00,VALID,917.327,VALID,0,VALID,90.8078,VALID,0,VALID,20.3027,VALID,92,VALID,0.471799,
2000-10-23, 00:07:00,VALID,917.332,VALID,0,VALID,90.9884,VALID,0,VALID,20.2569,VALID,68,VALID,0.462171,
2000-10-23, 00:08:00,VALID,917.309,VALID,0,VALID,91.1791,VALID,0,VALID,20.251,VALID,84,VALID,0.637541,
2000-10-23, 00:09:00,VALID,917.27,VALID,0,VALID,91.155,VALID,-0.0169808,VALID,20.2472,VALID,101,VALID,0.751367,
2000-10-23, 00:10:00,VALID,917.252,VALID,0,VALID,91.2949,VALID,-0.0169808,VALID,20.2572,VALID,100,VALID,0.713816,
2000-10-23, 00:11:00,VALID,917.232,VALID,0,VALID,91.1728,VALID,0,VALID,20.2932,VALID,104,VALID,0.441817,
2000-10-23, 00:12:00,VALID,917.211,VALID,0,VALID,90.9922,VALID,0,VALID,20.2927,VALID,86,VALID,0.726985,
2000-10-23, 00:13:00,VALID,917.186,VALID,0,VALID,90.907,VALID,0,VALID,20.3022,VALID,119,VALID,0.357856,
2000-10-23, 00:14:00,VALID,917.187,VALID,0,VALID,91.0049,VALID,0,VALID,20.2994,VALID,98,VALID,0.437934,
2000-10-23, 00:15:00,VALID,917.159,VALID,0,VALID,91.1219,VALID,0.0169808,VALID,20.2962,VALID,113,VALID,0.63186,
2000-10-23, 00:16:00,VALID,917.164,VALID,0,VALID,91.1868,VALID,0,VALID,20.2766,VALID,97,VALID,0.535262,
2000-10-23, 00:17:00,VALID,917.165,VALID,0,VALID,91.2262,VALID,0,VALID,20.2666,VALID,104,VALID,0.601768,
2000-10-23, 00:18:00,VALID,917.137,VALID,0,VALID,91.3139,VALID,0,VALID,20.2308,VALID,111,VALID,0.825041,
2000-10-23, 00:19:00,VALID,917.108,VALID,0,VALID,91.4589,VALID,0.0339617,VALID,20.2127,VALID,116,VALID,0.734947,
2000-10-23, 00:20:00,VALID,917.093,VALID,0,VALID,91.5682,VALID,0,VALID,20.2055,VALID,124,VALID,0.378495,
2000-10-23, 00:21:00,VALID,917.107,VALID,0,VALID,91.4436,VALID,0,VALID,20.2184,VALID,116,VALID,0.217928,
2000-10-23, 00:22:00,VALID,917.12,VALID,0,VALID,91.3432,VALID,0,VALID,20.2313,VALID,96,VALID,0.0657552,
2000-10-23, 00:23:00,VALID,917.125,VALID,0,VALID,91.1969,VALID,0,VALID,20.2375,VALID,96,VALID,0,
2000-10-23, 00:24:00,VALID,917.092,VALID,0,VALID,91.1512,VALID,0,VALID,20.2701,VALID,131,VALID,0,
2000-10-23, 00:25:00,VALID,917.053,VALID,0,VALID,90.7875,VALID,0,VALID,20.2863,VALID,162,VALID,0,
2000-10-23, 00:26:00,VALID,917.039,VALID,0,VALID,90.5789,VALID,0,VALID,20.2989,VALID,162,VALID,0,
2000-10-23, 00:27:00,VALID,917.021,VALID,0,VALID,90.612,VALID,0,VALID,20.3094,VALID,162,VALID,0,
2000-10-23, 00:28:00,VALID,917.015,VALID,0,VALID,90.8994,VALID,0,VALID,20.3126,VALID,164,VALID,0,
2000-10-23, 00:29:00,VALID,916.995,VALID,0,VALID,90.6603,VALID,0,VALID,20.3096,VALID,135,VALID,0.283203,
2000-10-23, 00:30:00,VALID,916.955,VALID,0,VALID,90.4238,VALID,-0.0169808,VALID,20.3153,VALID,122,VALID,0.910567,
2000-10-23, 00:31:00,VALID,916.923,VALID,0,VALID,90.2547,VALID,0,VALID,20.3317,VALID,116,VALID,0.955946,
2000-10-23, 00:32:00,VALID,916.897,VALID,0,VALID,90.2661,VALID,0,VALID,20.3253,VALID,116,VALID,0.525549,
2000-10-23, 00:33:00,VALID,916.869,VALID,0,VALID,90.3399,VALID,-0.0169808,VALID,20.3355,VALID,114,VALID,0.484797,
2000-10-23, 00:34:00,VALID,916.851,VALID,0,VALID,90.331,VALID,-0.0169808,VALID,20.3221,VALID,102,VALID,0.334329,
2000-10-23, 00:35:00,VALID,916.837,VALID,0,VALID,90.3005,VALID,0,VALID,20.3034,VALID,77,VALID,0.647656,
2000-10-23, 00:36:00,VALID,916.823,VALID,0,VALID,90.5001,VALID,0,VALID,20.28,VALID,71,VALID,0.113582,
2000-10-23, 00:37:00,VALID,916.821,VALID,0,VALID,90.5675,VALID,0,VALID,20.2771,VALID,90,VALID,0,
2000-10-23, 00:38:00,VALID,916.796,VALID,0,VALID,90.5204,VALID,0,VALID,20.2577,VALID,101,VALID,0,
2000-10-23, 00:39:00,VALID,916.806,VALID,0,VALID,90.4238,VALID,0,VALID,20.2868,VALID,93,VALID,0,
2000-10-23, 00:40:00,VALID,916.793,VALID,0,VALID,90.467,VALID,0.0169808,VALID,20.2989,VALID,91,VALID,0,
2000-10-23, 00:41:00,VALID,916.793,VALID,0,VALID,90.2102,VALID,0,VALID,20.3156,VALID,90,VALID,0,
2000-10-23, 00:42:00,VALID,916.782,VALID,0,VALID,90.2076,VALID,0,VALID,20.3352,VALID,134,VALID,0,
2000-10-23, 00:43:00,VALID,916.781,VALID,0,VALID,90.4022,VALID,0,VALID,20.3409,VALID,139,VALID,0,
2000-10-23, 00:44:00,VALID,916.779,VALID,0,VALID,90.4645,VALID,0,VALID,20.3476,VALID,141,VALID,0,
2000-10-23, 00:45:00,VALID,916.751,VALID,0,VALID,90.5408,VALID,0,VALID,20.3476,VALID,141,VALID,0,
2000-10-23, 00:46:00,VALID,916.74,VALID,0,VALID,90.5446,VALID,-0.0169808,VALID,20.3323,VALID,141,VALID,0,
2000-10-23, 00:47:00,VALID,916.73,VALID,0,VALID,90.4607,VALID,-0.101885,VALID,20.3238,VALID,141,VALID,0,
2000-10-23, 00:48:00,VALID,916.73,VALID,0,VALID,90.2381,VALID,-0.101885,VALID,20.3268,VALID,141,VALID,0,
2000-10-23, 00:49:00,VALID,916.721,VALID,0,VALID,90.0271,VALID,-0.101885,VALID,20.3268,VALID,169,VALID,0.123666,
2000-10-23, 00:50:00,VALID,916.711,VALID,0,VALID,89.8567,VALID,-0.101885,VALID,20.3529,VALID,176,VALID,0.232936,
2000-10-23, 00:51:00,VALID,916.682,VALID,0,VALID,90.2038,VALID,-0.101885,VALID,20.3494,VALID,153,VALID,0.545436,
2000-10-23, 00:52:00,VALID,916.653,VALID,0,VALID,90.2165,VALID,-0.152827,VALID,20.3278,VALID,129,VALID,0.731554,
2000-10-23, 00:53:00,VALID,916.636,VALID,0,VALID,90.3259,VALID,-0.118866,VALID,20.2821,VALID,128,VALID,0.4375,
2000-10-23, 00:54:00,VALID,916.641,VALID,0,VALID,90.4009,VALID,-0.152827,VALID,20.2662,VALID,128,VALID,0.114955,
2000-10-23, 00:55:00,VALID,916.63,VALID,0,VALID,90.3526,VALID,-0.152827,VALID,20.259,VALID,128,VALID,0,
2000-10-23, 00:56:00,VALID,916.623,VALID,0,VALID,90.612,VALID,-0.101885,VALID,20.2597,VALID,128,VALID,0,
2000-10-23, 00:57:00,VALID,916.61,VALID,0,VALID,90.626,VALID,-0.101885,VALID,20.2396,VALID,156,VALID,0,
2000-10-23, 00:58:00,VALID,916.598,VALID,0,VALID,91.2058,VALID,-0.118866,VALID,20.2336,VALID,174,VALID,0.036951,
2000-10-23, 00:59:00,VALID,916.572,VALID,0,VALID,91.5543,VALID,-0.118866,VALID,20.1846,VALID,174,VALID,0.24043,
2000-10-23, 01:00:00,VALID,916.542,VALID,0,VALID,90.9897,VALID,-0.101885,VALID,20.1329,VALID,139,VALID,0.349507,
2000-10-23, 01:01:00,VALID,916.518,VALID,0,VALID,91.0583,VALID,-0.0849042,VALID,20.1225,VALID,134,VALID,0.0614149,
2000-10-23, 01:02:00,VALID,916.474,VALID,0,VALID,91.3572,VALID,0.0679233,VALID,20.1239,VALID,139,VALID,0,
2000-10-23, 01:03:00,VALID,916.46,VALID,0,VALID,91.3953,VALID,0,VALID,20.1147,VALID,140,VALID,0.0546875,
2000-10-23, 01:04:00,VALID,916.425,VALID,0,VALID,91.4093,VALID,0.0169808,VALID,20.1085,VALID,139,VALID,0,
2000-10-23, 01:05:00,VALID,916.408,VALID,0,VALID,91.4424,VALID,0,VALID,20.1016,VALID,140,VALID,0,
2000-10-23, 01:06:00,VALID,916.374,VALID,0,VALID,91.9001,VALID,0.0339617,VALID,20.112,VALID,169,VALID,0.38762,
2000-10-23, 01:07:00,VALID,916.344,VALID,0,VALID,92.1901,VALID,0.0339617,VALID,20.0601,VALID,139,VALID,0.527755,
2000-10-23, 01:08:00,VALID,916.312,VALID,0,VALID,91.0482,VALID,0.0339617,VALID,20.0315,VALID,132,VALID,0.548314,
2000-10-23, 01:09:00,VALID,916.319,VALID,0,VALID,90.8294,VALID,0.0169808,VALID,20.0854,VALID,127,VALID,0.218164,
2000-10-23, 01:10:00,VALID,916.336,VALID,0,VALID,90.6692,VALID,0.0169808,VALID,20.1376,VALID,127,VALID,0,
2000-10-23, 01:11:00,VALID,916.332,VALID,0,VALID,90.9426,VALID,0.0169808,VALID,20.1568,VALID,127,VALID,0.00123355,
2000-10-23, 01:12:00,VALID,916.3,VALID,0,VALID,90.4162,VALID,0.0169808,VALID,20.157,VALID,142,VALID,0.203758,
2000-10-23, 01:13:00,VALID,916.282,VALID,0,VALID,90.2229,VALID,0,VALID,20.1764,VALID,136,VALID,0.398438,
2000-10-23, 01:14:00,VALID,916.303,VALID,0,VALID,90.5942,VALID,0.0169808,VALID,20.205,VALID,104,VALID,0.411892,
2000-10-23, 01:15:00,VALID,916.297,VALID,0,VALID,90.2229,VALID,0.0169808,VALID,20.1861,VALID,65,VALID,0.581364,
2000-10-23, 01:16:00,VALID,916.305,VALID,0,VALID,89.8439,VALID,-0.0169808,VALID,20.2087,VALID,9,VALID,0.513936,
2000-10-23, 01:17:00,VALID,916.308,VALID,0,VALID,89.8312,VALID,-0.0849042,VALID,20.2361,VALID,22,VALID,0.374178,
2000-10-23, 01:18:00,VALID,916.311,VALID,0,VALID,89.1624,VALID,-0.0849042,VALID,20.2843,VALID,54,VALID,0.291735,
2000-10-23, 01:19:00,VALID,916.283,VALID,0,VALID,88.8127,VALID,-0.101885,VALID,20.33,VALID,142,VALID,1.08765,
2000-10-23, 01:20:00,VALID,916.239,VALID,0,VALID,89.0467,VALID,-0.0509425,VALID,20.3909,VALID,107,VALID,1.34663,
2000-10-23, 01:21:00,VALID,916.277,VALID,0,VALID,89.0288,VALID,-0.101885,VALID,20.3783,VALID,84,VALID,1.18791,
2000-10-23, 01:22:00,VALID,916.307,VALID,0,VALID,88.5431,VALID,-0.0849042,VALID,20.371,VALID,56,VALID,0.392144,
2000-10-23, 01:23:00,VALID,916.323,VALID,0,VALID,88.4223,VALID,-0.0679233,VALID,20.4009,VALID,71,VALID,0.221073,
2000-10-23, 01:24:00,VALID,916.333,VALID,0,VALID,89.1408,VALID,-0.0849042,VALID,20.4076,VALID,103,VALID,0.711607,
2000-10-23, 01:25:00,VALID,916.35,VALID,0,VALID,89.2348,VALID,-0.101885,VALID,20.3492,VALID,94,VALID,0.970189,
2000-10-23, 01:26:00,VALID,916.353,VALID,0,VALID,89.6049,VALID,-0.0509425,VALID,20.2741,VALID,91,VALID,0.716216,
2000-10-23, 01:27:00,VALID,916.347,VALID,0,VALID,89.8961,VALID,-0.0679233,VALID,20.2224,VALID,98,VALID,0.883018,
2000-10-23, 01:28:00,VALID,916.325,VALID,0,VALID,90.3017,VALID,-0.0509425,VALID,20.1516,VALID,102,VALID,1.13957,
2000-10-23, 01:29:00,VALID,916.323,VALID,0,VALID,90.3806,VALID,-0.0169808,VALID,20.1187,VALID,99,VALID,0.916016,
2000-10-23, 01:30:00,VALID,916.34,VALID,0,VALID,90.4429,VALID,-0.0849042,VALID,20.1163,VALID,97,VALID,0.744655,
2000-10-23, 01:31:00,VALID,916.334,VALID,0,VALID,90.7226,VALID,-0.0679233,VALID,20.0837,VALID,95,VALID,1.22309,
2000-10-23, 01:32:00,VALID,916.321,VALID,0,VALID,90.3399,VALID,-0.0509425,VALID,20.074,VALID,104,VALID,1.26541,
2000-10-23, 01:33:00,VALID,916.297,VALID,0,VALID,89.7384,VALID,-0.0679233,VALID,20.1424,VALID,182,VALID,0.604307,
2000-10-23, 01:34:00,VALID,916.301,VALID,0,VALID,89.1204,VALID,-0.0679233,VALID,20.2105,VALID,173,VALID,0.38534,
2000-10-23, 01:35:00,VALID,916.307,VALID,0,VALID,89.3429,VALID,-0.0509425,VALID,20.2749,VALID,136,VALID,0.554102,
2000-10-23, 01:36:00,VALID,916.312,VALID,0,VALID,89.7142,VALID,-0.101885,VALID,20.3039,VALID,139,VALID,0.460337,
2000-10-23, 01:37:00,VALID,916.331,VALID,0,VALID,90.0105,VALID,-0.0679233,VALID,20.2833,VALID,139,VALID,0.0240543,
2000-10-23, 01:38:00,VALID,916.333,VALID,0,VALID,90.1529,VALID,-0.0849042,VALID,20.2838,VALID,139,VALID,0,
2000-10-23, 01:39:00,VALID,916.32,VALID,0,VALID,89.6697,VALID,-0.0509425,VALID,20.2488,VALID,139,VALID,0.322852,
2000-10-23, 01:40:00,VALID,916.294,VALID,0,VALID,89.5057,VALID,-0.0679233,VALID,20.2423,VALID,165,VALID,0.630757,
2000-10-23, 01:41:00,VALID,916.273,VALID,0,VALID,88.9487,VALID,-0.0679233,VALID,20.2517,VALID,164,VALID,0.694285,
2000-10-23, 01:42:00,VALID,916.276,VALID,0,VALID,89.0937,VALID,-0.0679233,VALID,20.2873,VALID,123,VALID,0.580025,
2000-10-23, 01:43:00,VALID,916.283,VALID,0,VALID,90.5853,VALID,-0.0849042,VALID,20.3101,VALID,97,VALID,0.594835,
2000-10-23, 01:44:00,VALID,916.262,VALID,0,VALID,90.7175,VALID,-0.0679233,VALID,20.2584,VALID,134,VALID,1.49067,
2000-10-23, 01:45:00,VALID,916.165,VALID,0,VALID,89.9291,VALID,-0.0679233,VALID,20.1801,VALID,112,VALID,1.10556,
2000-10-23, 01:46:00,VALID,916.164,VALID,0,VALID,90.008,VALID,-0.0339617,VALID,20.154,VALID,36,VALID,0.814189,
2000-10-23, 01:47:00,VALID,916.175,VALID,0,VALID,89.8452,VALID,0.0339617,VALID,20.1374,VALID,24,VALID,0.734786,
2000-10-23, 01:48:00,VALID,916.172,VALID,0,VALID,89.8096,VALID,0.0339617,VALID,20.1597,VALID,38,VALID,0.459498,
2000-10-23, 01:49:00,VALID,916.143,VALID,0,VALID,89.6761,VALID,0.0509425,VALID,20.1789,VALID,92,VALID,0.336939,
2000-10-23, 01:50:00,VALID,916.086,VALID,0,VALID,89.6685,VALID,0.0509425,VALID,20.192,VALID,150,VALID,0.517064,
2000-10-23, 01:51:00,VALID,916.031,VALID,0,VALID,89.3938,VALID,0.0509425,VALID,20.2085,VALID,159,VALID,0.433594,
2000-10-23, 01:52:00,VALID,916.051,VALID,0,VALID,90.0029,VALID,0,VALID,20.2055,VALID,327,VALID,0.434028,
2000-10-23, 01:53:00,VALID,916.046,VALID,0,VALID,90.4543,VALID,0.0169808,VALID,20.1759,VALID,277,VALID,0.567568,
2000-10-23, 01:54:00,VALID,916.036,VALID,0,VALID,90.2445,VALID,0,VALID,20.1473,VALID,250,VALID,0.411161,
2000-10-23, 01:55:00,VALID,916.026,VALID,0,VALID,90.7748,VALID,0.0339617,VALID,20.1441,VALID,219,VALID,0.158923,
2000-10-23, 01:56:00,VALID,916.025,VALID,0,VALID,90.4721,VALID,0,VALID,20.1401,VALID,219,VALID,0.011402,
2000-10-23, 01:57:00,VALID,916.018,VALID,0,VALID,90.3475,VALID,0,VALID,20.1274,VALID,219,VALID,0,
2000-10-23, 01:58:00,VALID,916.024,VALID,0,VALID,90.7519,VALID,0.0169808,VALID,20.1113,VALID,219,VALID,0,
2000-10-23, 01:59:00,VALID,915.99,VALID,0,VALID,90.9388,VALID,0.0169808,VALID,20.0886,VALID,219,VALID,0,
2000-10-23, 02:00:00,VALID,915.968,VALID,0,VALID,90.8905,VALID,0.0169808,VALID,20.0501,VALID,219,VALID,0,
2000-10-23, 02:01:00,VALID,915.95,VALID,0,VALID,91.0977,VALID,0.0169808,VALID,20.0211,VALID,226,VALID,0,
2000-10-23, 02:02:00,VALID,915.925,VALID,0,VALID,91.5619,VALID,0.0169808,VALID,19.9756,VALID,127,VALID,0.370777,
2000-10-23, 02:03:00,VALID,915.899,VALID,0,VALID,91.7959,VALID,0.0169808,VALID,19.9336,VALID,100,VALID,0.625,
2000-10-23, 02:04:00,VALID,915.888,VALID,0,VALID,91.848,VALID,0.0169808,VALID,19.8946,VALID,129,VALID,0.487362,
2000-10-23, 02:05:00,VALID,915.87,VALID,0,VALID,92.0095,VALID,0.0169808,VALID,19.8598,VALID,115,VALID,0.591797,
2000-10-23, 02:06:00,VALID,915.869,VALID,0,VALID,92.2727,VALID,0.0169808,VALID,19.8178,VALID,109,VALID,0.0845353,
2000-10-23, 02:07:00,VALID,915.886,VALID,0,VALID,92.2498,VALID,0,VALID,19.7822,VALID,113,VALID,0,
2000-10-23, 02:08:00,VALID,915.873,VALID,0,VALID,92.1786,VALID,0.0339617,VALID,19.7693,VALID,154,VALID,0,
2000-10-23, 02:09:00,VALID,915.876,VALID,0,VALID,92.3465,VALID,0,VALID,19.7532,VALID,151,VALID,0,
2000-10-23, 02:10:00,VALID,915.895,VALID,0,VALID,92.5041,VALID,0,VALID,19.7335,VALID,140,VALID,0.148026,
2000-10-23, 02:11:00,VALID,915.882,VALID,0,VALID,92.4215,VALID,0,VALID,19.6982,VALID,131,VALID,0.499794,
2000-10-23, 02:12:00,VALID,915.898,VALID,0,VALID,91.7259,VALID,0,VALID,19.702,VALID,125,VALID,0.104307,
2000-10-23, 02:13:00,VALID,915.888,VALID,0,VALID,91.3292,VALID,0,VALID,19.7536,VALID,140,VALID,0.594401,
2000-10-23, 02:14:00,VALID,915.852,VALID,0,VALID,91.8696,VALID,0.0169808,VALID,19.7792,VALID,116,VALID,0.661675,
2000-10-23, 02:15:00,VALID,915.856,VALID,0,VALID,91.0685,VALID,0.0169808,VALID,19.7728,VALID,11,VALID,0.614901,
2000-10-23, 02:16:00,VALID,915.832,VALID,0,VALID,89.5324,VALID,0,VALID,19.8598,VALID,305,VALID,0.767736,
2000-10-23, 02:17:00,VALID,915.795,VALID,0,VALID,89.0606,VALID,0,VALID,20.0081,VALID,312,VALID,0.849712,
2000-10-23, 02:18:00,VALID,915.783,VALID,0,VALID,88.7173,VALID,0.0169808,VALID,20.0892,VALID,299,VALID,1.11986,
2000-10-23, 02:19:00,VALID,915.798,VALID,0,VALID,88.1845,VALID,0.0169808,VALID,20.1667,VALID,331,VALID,0.559261,
2000-10-23, 02:20:00,VALID,915.805,VALID,0,VALID,87.6682,VALID,0.0509425,VALID,20.2184,VALID,332,VALID,0.696135,
2000-10-23, 02:21:00,VALID,915.818,VALID,0,VALID,87.4088,VALID,0.0169808,VALID,20.2731,VALID,291,VALID,0.536801,
2000-10-23, 02:22:00,VALID,915.822,VALID,0,VALID,87.2486,VALID,0.0169808,VALID,20.3118,VALID,297,VALID,0.629123,
2000-10-23, 02:23:00,VALID,915.814,VALID,0,VALID,87.2143,VALID,0.0169808,VALID,20.3412,VALID,313,VALID,0.277027,
2000-10-23, 02:24:00,VALID,915.813,VALID,0,VALID,87.8768,VALID,0.0169808,VALID,20.331,VALID,18,VALID,0.446652,
2000-10-23, 02:25:00,VALID,915.819,VALID,0,VALID,87.8399,VALID,0.0339617,VALID,20.2766,VALID,79,VALID,0.485814,
2000-10-23, 02:26:00,VALID,915.804,VALID,0,VALID,88.1514,VALID,0,VALID,20.238,VALID,80,VALID,0.0787584,
2000-10-23, 02:27:00,VALID,915.792,VALID,0,VALID,88.7733,VALID,0.0169808,VALID,20.1667,VALID,88,VALID,0.611225,
2000-10-23, 02:28:00,VALID,915.774,VALID,0,VALID,89.5375,VALID,0.0339617,VALID,20.0633,VALID,100,VALID,0.447846,
2000-10-23, 02:29:00,VALID,915.747,VALID,0,VALID,90.1529,VALID,0.0169808,VALID,19.9634,VALID,104,VALID,0.338281,
2000-10-23, 02:30:00,VALID,915.736,VALID,0,VALID,90.6781,VALID,0,VALID,19.8821,VALID,107,VALID,0.216283,
2000-10-23, 02:31:00,VALID,915.731,VALID,0,VALID,91.024,VALID,-0.0169808,VALID,19.7884,VALID,107,VALID,0.0249566,
2000-10-23, 02:32:00,VALID,915.721,VALID,0,VALID,91.0558,VALID,-0.0679233,VALID,19.7514,VALID,110,VALID,0.0506757,
2000-10-23, 02:33:00,VALID,915.687,VALID,0,VALID,91.2465,VALID,-0.0849042,VALID,19.7288,VALID,112,VALID,0.250633,
2000-10-23, 02:34:00,VALID,915.705,VALID,0,VALID,91.5555,VALID,-0.0849042,VALID,19.7029,VALID,112,VALID,0.0811121,
2000-10-23, 02:35:00,VALID,915.698,VALID,0,VALID,91.4525,VALID,-0.0679233,VALID,19.6582,VALID,155,VALID,0.485742,
2000-10-23, 02:36:00,VALID,915.669,VALID,0,VALID,90.9286,VALID,-0.101885,VALID,19.6709,VALID,140,VALID,0.520633,
2000-10-23, 02:37:00,VALID,915.7,VALID,0,VALID,91.127,VALID,-0.101885,VALID,19.7261,VALID,87,VALID,0.328331,
2000-10-23, 02:38:00,VALID,915.725,VALID,0,VALID,91.2186,VALID,-0.101885,VALID,19.7094,VALID,83,VALID,0.0990954,
2000-10-23, 02:39:00,VALID,915.707,VALID,0,VALID,91.1105,VALID,-0.0849042,VALID,19.7,VALID,84,VALID,0.0154297,
2000-10-23, 02:40:00,VALID,915.705,VALID,0,VALID,91.0571,VALID,-0.0849042,VALID,19.6995,VALID,110,VALID,0.950452,
2000-10-23, 02:41:00,VALID,915.7,VALID,0,VALID,90.6768,VALID,-0.101885,VALID,19.729,VALID,295,VALID,0.706209,
2000-10-23, 02:42:00,VALID,915.713,VALID,0,VALID,90.5433,VALID,-0.0339617,VALID,19.7676,VALID,262,VALID,0.704603,
2000-10-23, 02:43:00,VALID,915.711,VALID,0,VALID,90.5484,VALID,-0.0509425,VALID,19.7835,VALID,265,VALID,0.729167,
2000-10-23, 02:44:00,VALID,915.74,VALID,0,VALID,90.654,VALID,-0.0679233,VALID,19.7937,VALID,251,VALID,0.277561,
2000-10-23, 02:45:00,VALID,915.75,VALID,0,VALID,90.7671,VALID,-0.0679233,VALID,19.8101,VALID,251,VALID,0.314215,
2000-10-23, 02:46:00,VALID,915.745,VALID,0,VALID,90.6018,VALID,-0.0849042,VALID,19.8063,VALID,258,VALID,0.591005,
2000-10-23, 02:47:00,VALID,915.724,VALID,0,VALID,90.5255,VALID,0.0169808,VALID,19.8016,VALID,258,VALID,0.805921,
2000-10-23, 02:48:00,VALID,915.736,VALID,0,VALID,90.6807,VALID,0.0169808,VALID,19.8183,VALID,269,VALID,0.803043,
2000-10-23, 02:49:00,VALID,915.723,VALID,0,VALID,89.9978,VALID,0.0169808,VALID,19.8406,VALID,285,VALID,0.985137,
2000-10-23, 02:50:00,VALID,915.708,VALID,0,VALID,89.4434,VALID,0.0679233,VALID,19.8918,VALID,295,VALID,0.922697,
2000-10-23, 02:51:00,VALID,915.694,VALID,0,VALID,88.9704,VALID,0,VALID,19.9927,VALID,297,VALID,0.699424,
2000-10-23, 02:52:00,VALID,915.692,VALID,0,VALID,88.5749,VALID,0.0509425,VALID,20.067,VALID,323,VALID,0.674913,
2000-10-23, 02:53:00,VALID,915.697,VALID,0,VALID,88.6321,VALID,-0.0169808,VALID,20.1153,VALID,254,VALID,0.188978,
2000-10-23, 02:54:00,VALID,915.665,VALID,0,VALID,88.3473,VALID,0.0169808,VALID,20.1379,VALID,249,VALID,0.0904018,
2000-10-23, 02:55:00,VALID,915.67,VALID,0,VALID,88.215,VALID,0.0339617,VALID,20.1476,VALID,269,VALID,0.266242,
2000-10-23, 02:56:00,VALID,915.668,VALID,0,VALID,88.3803,VALID,0,VALID,20.1702,VALID,301,VALID,0.185389,
2000-10-23, 02:57:00,VALID,915.679,VALID,0,VALID,88.4821,VALID,0.0169808,VALID,20.1672,VALID,299,VALID,0.193873,
2000-10-23, 02:58:00,VALID,915.695,VALID,0,VALID,88.5952,VALID,0.0339617,VALID,20.1702,VALID,295,VALID,0.0152027,
2000-10-23, 02:59:00,VALID,915.68,VALID,0,VALID,89.0721,VALID,0.0509425,VALID,20.1505,VALID,257,VALID,0.150977,
2000-10-23, 03:00:00,VALID,915.639,VALID,0,VALID,89.1268,VALID,0.0169808,VALID,20.1056,VALID,242,VALID,0.441406,
2000-10-23, 03:01:00,VALID,915.606,VALID,0,VALID,88.9258,VALID,0.0169808,VALID,20.0703,VALID,274,VALID,0.25803,
2000-10-23, 03:02:00,VALID,915.625,VALID,0,VALID,89.2946,VALID,0.0169808,VALID,20.0313,VALID,347,VALID,0.501689,
2000-10-23, 03:03:00,VALID,915.652,VALID,0,VALID,88.9284,VALID,0.0509425,VALID,20.038,VALID,76,VALID,0.0430743,
2000-10-23, 03:04:00,VALID,915.657,VALID,0,VALID,89.582,VALID,0,VALID,19.9994,VALID,109,VALID,0.454274,
2000-10-23, 03:05:00,VALID,915.639,VALID,0,VALID,89.8732,VALID,0.0169808,VALID,19.9279,VALID,86,VALID,0.624023,
2000-10-23, 03:06:00,VALID,915.655,VALID,0,VALID,89.7397,VALID,0,VALID,19.8794,VALID,97,VALID,0.363381,
2000-10-23, 03:07:00,VALID,915.631,VALID,0,VALID,90.0182,VALID,0,VALID,19.8573,VALID,214,VALID,0.283923,
2000-10-23, 03:08:00,VALID,915.646,VALID,0,VALID,89.6697,VALID,0,VALID,19.8444,VALID,198,VALID,0.197368,
2000-10-23, 03:09:00,VALID,915.641,VALID,0,VALID,89.8312,VALID,0,VALID,19.857,VALID,190,VALID,0.159961,
2000-10-23, 03:10:00,VALID,915.651,VALID,0,VALID,90.0347,VALID,0,VALID,19.8476,VALID,190,VALID,0.0051398,
2000-10-23, 03:11:00,VALID,915.64,VALID,0,VALID,89.9762,VALID,0,VALID,19.8379,VALID,186,VALID,0.0454359,
2000-10-23, 03:12:00,VALID,915.649,VALID,0,VALID,90.4073,VALID,0,VALID,19.815,VALID,149,VALID,0.261824,
2000-10-23, 03:13:00,VALID,915.645,VALID,0,VALID,90.6412,VALID,0,VALID,19.7765,VALID,132,VALID,0.368707,
2000-10-23, 03:14:00,VALID,915.647,VALID,0,VALID,90.968,VALID,0,VALID,19.7084,VALID,97,VALID,0.980686,
2000-10-23, 03:15:00,VALID,915.641,VALID,0,VALID,90.9719,VALID,0,VALID,19.6314,VALID,89,VALID,0.880716,
2000-10-23, 03:16:00,VALID,915.625,VALID,0,VALID,90.8447,VALID,0,VALID,19.5958,VALID,118,VALID,0.427576,
2000-10-23, 03:17:00,VALID,915.6,VALID,0,VALID,90.7926,VALID,0,VALID,19.6145,VALID,109,VALID,0.202097,
2000-10-23, 03:18:00,VALID,915.589,VALID,0,VALID,90.7442,VALID,0.0169808,VALID,19.6346,VALID,109,VALID,0.224507,
2000-10-23, 03:19:00,VALID,915.564,VALID,0,VALID,90.9757,VALID,0,VALID,19.6242,VALID,32,VALID,0.665777,
2000-10-23, 03:20:00,VALID,915.59,VALID,0,VALID,91.745,VALID,0,VALID,19.6247,VALID,8,VALID,0.361431,
2000-10-23, 03:21:00,VALID,915.581,VALID,0,VALID,91.5148,VALID,0,VALID,19.6088,VALID,91,VALID,0.402549,
2000-10-23, 03:22:00,VALID,915.577,VALID,0,VALID,91.1181,VALID,0,VALID,19.6187,VALID,98,VALID,0.621094,
2000-10-23, 03:23:00,VALID,915.56,VALID,0,VALID,90.7074,VALID,-0.0169808,VALID,19.6378,VALID,101,VALID,0.602196,
2000-10-23, 03:24:00,VALID,915.561,VALID,0,VALID,90.6552,VALID,-0.101885,VALID,19.6679,VALID,105,VALID,0.661384,
2000-10-23, 03:25:00,VALID,915.549,VALID,0,VALID,90.3857,VALID,-0.101885,VALID,19.6746,VALID,91,VALID,0.984581,
2000-10-23, 03:26:00,VALID,915.552,VALID,0,VALID,90.5052,VALID,-0.101885,VALID,19.6391,VALID,101,VALID,1.1402,
2000-10-23, 03:27:00,VALID,915.55,VALID,0,VALID,90.6743,VALID,-0.0849042,VALID,19.6132,VALID,106,VALID,0.789885,
2000-10-23, 03:28:00,VALID,915.557,VALID,0,VALID,90.7252,VALID,-0.101885,VALID,19.6135,VALID,100,VALID,0.563556,
2000-10-23, 03:29:00,VALID,915.559,VALID,0,VALID,91.0087,VALID,-0.101885,VALID,19.5715,VALID,95,VALID,0.519922,
2000-10-23, 03:30:00,VALID,915.566,VALID,0,VALID,91.155,VALID,-0.101885,VALID,19.5136,VALID,85,VALID,0.418997,
2000-10-23, 03:31:00,VALID,915.577,VALID,0,VALID,91.3279,VALID,-0.0849042,VALID,19.4833,VALID,74,VALID,0.342231,
2000-10-23, 03:32:00,VALID,915.593,VALID,0,VALID,91.1601,VALID,0,VALID,19.5312,VALID,50,VALID,0.636824,
2000-10-23, 03:33:00,VALID,915.618,VALID,0,VALID,90.8523,VALID,0.0169808,VALID,19.615,VALID,100,VALID,0.348184,
2000-10-23, 03:34:00,VALID,915.635,VALID,0,VALID,90.7608,VALID,0,VALID,19.6249,VALID,127,VALID,0.0677849,
2000-10-23, 03:35:00,VALID,915.634,VALID,0,VALID,90.8294,VALID,0.0509425,VALID,19.576,VALID,127,VALID,0,
2000-10-23, 03:36:00,VALID,915.642,VALID,0,VALID,90.9986,VALID,0,VALID,19.5474,VALID,127,VALID,0.0663061,